Location: Hermaringen
(48.5952°N, 10.2585°E)
Time: 14:49:40
(UTC+00:00)

S-56A Canister/Altair - All Passes

Search period start: 10 February 2026 00:00
Search period end: 20 February 2026 00:00
Orbit: 632 x 2485 km, 38.9° (Epoch: 10 February)

Date Brightness Start Highest point End Pass type
(mag) Time Alt. Az. Time Alt. Az. Time Alt. Az.
10 Feb - 01:15:32 10° SW 01:23:01 38° SSE 01:33:39 10° E visible
10 Feb - 03:17:37 10° WSW 03:27:00 53° S 03:40:10 10° ESE visible
10 Feb - 05:21:07 10° W 05:31:51 45° SSW 05:45:24 10° SE visible
10 Feb - 07:26:24 10° W 07:36:20 26° SW 07:47:19 10° S daylight
11 Feb - 00:41:13 10° SSW 00:48:03 33° SSE 00:57:38 10° E visible
11 Feb - 02:42:56 10° WSW 02:51:42 51° S 03:04:14 10° ESE visible
11 Feb - 04:46:08 10° W 04:56:22 46° SSW 05:09:46 10° SE visible
11 Feb - 06:50:56 10° W 07:00:56 28° SW 07:12:24 10° SSE daylight
12 Feb - 00:07:01 10° SSW 00:13:10 29° SSE 00:21:37 10° E visible
12 Feb - 02:08:19 10° WSW 02:16:27 49° S 02:28:18 10° ESE visible
12 Feb - 04:11:15 10° W 04:20:57 47° SSW 04:34:03 10° SE visible
12 Feb - 06:15:37 10° W 06:25:31 30° SSW 06:37:18 10° SSE daylight
12 Feb - 08:26:29 10° WSW 08:29:10 11° SW 08:31:56 10° SW daylight
12 Feb - 23:32:56 10° SSW 23:38:21 24° SE 23:45:35 10° E visible
13 Feb - 01:33:46 10° WSW 01:41:19 46° SSE 01:52:22 10° E visible
13 Feb - 03:36:27 10° W 03:45:34 48° S 03:58:17 10° ESE visible
13 Feb - 05:40:26 10° W 05:50:06 32° SSW 06:02:03 10° SSE visible
13 Feb - 07:48:51 10° WSW 07:53:58 13° SW 07:59:23 10° SSW daylight
13 Feb - 22:59:01 10° S 23:03:38 20° SE 23:09:30 10° E night (unlit)
14 Feb - 00:59:18 10° SW 01:06:16 43° SSE 01:16:27 10° E visible
14 Feb - 03:01:43 10° WSW 03:10:15 48° S 03:22:28 10° ESE visible
14 Feb - 05:05:23 10° W 05:14:44 34° SSW 05:26:41 10° SSE visible
14 Feb - 07:12:25 10° WSW 07:18:43 15° SW 07:25:36 10° SSW daylight
14 Feb - 22:25:22 10° S 22:28:57 16° SE 22:33:17 10° ESE night (unlit)
15 Feb - 00:24:55 10° SW 00:31:18 39° SSE 00:40:34 10° E visible
15 Feb - 02:27:04 10° WSW 02:35:01 48° S 02:46:38 10° ESE visible
15 Feb - 04:30:26 10° W 04:39:23 36° SSW 04:51:13 10° SE visible
15 Feb - 06:36:31 10° WSW 06:43:27 17° SW 06:51:17 10° S daylight
15 Feb - 21:52:17 10° SSE 21:54:20 12° SE 21:56:38 10° ESE night (unlit)
15 Feb - 23:50:35 10° SW 23:56:25 34° SSE 00:04:43 10° E visible
16 Feb - 01:52:28 10° WSW 01:59:52 47° S 02:10:47 10° ESE visible
16 Feb - 03:55:35 10° W 04:04:05 37° SSW 04:15:39 10° SE visible
16 Feb - 06:00:56 10° WSW 06:08:11 19° SW 06:16:40 10° S daylight
16 Feb - 23:16:20 10° SSW 23:21:37 30° SSE 23:28:55 10° E night (unlit)
17 Feb - 01:17:56 10° WSW 01:24:47 45° S 01:34:57 10° ESE visible
17 Feb - 03:20:48 10° W 03:28:49 38° SSW 03:40:02 10° SE visible
17 Feb - 05:25:34 10° WSW 05:32:56 21° SW 05:41:48 10° S visible
17 Feb - 22:42:09 10° SSW 22:46:52 25° SSE 22:53:09 10° E night (unlit)
18 Feb - 00:43:26 10° WSW 00:49:47 43° S 00:59:09 10° ESE visible
18 Feb - 02:46:05 10° W 02:53:38 39° SSW 03:04:22 10° SE visible
18 Feb - 04:50:23 10° WSW 04:57:42 22° SSW 05:06:47 10° SSE visible
18 Feb - 22:08:05 10° SSW 22:12:12 21° SSE 22:17:24 10° ESE night (unlit)
19 Feb - 00:08:59 10° WSW 00:14:52 40° S 00:23:25 10° ESE visible
19 Feb - 02:11:27 10° WSW 02:18:31 39° S 02:28:41 10° SE visible
19 Feb - 04:15:21 10° WSW 04:22:30 24° SSW 04:31:37 10° SSE visible
19 Feb - 21:34:10 10° S 21:37:33 17° SE 21:41:38 10° ESE night (unlit)
19 Feb - 23:34:35 10° SW 23:40:00 37° SSE 23:47:44 10° ESE night (unlit)
